Weather History for DAAJ - March, 2013

Change the Weather History Date:

Sunday, March 24, 2013

  Actual Average Record
Temperature  
Mean Temperature 80 °F -  
Max Temperature 95 °F 87 °F - ()
Min Temperature 66 °F 63 °F - ()
Cooling Degree Days 16    
Growing Degree Days 30 (Base 50)    
Moisture  
Dew Point 30 °F    
Average Humidity 19    
Maximum Humidity 27    
Minimum Humidity 4    
Precipitation  
Precipitation 0.00 in 0.00 in - ()
Sea Level Pressure  
Sea Level Pressure 29.88 in    
Wind  
Wind Speed 16 mph ()    
Max Wind Speed 34 mph    
Max Gust Speed -    
Visibility 1.6 miles    
Events      
T = Trace of Precipitation, MM = Missing Value Source: Averaged Metar Reports

Daily Weather History Graph

Daily Weather History Graph

Search for Another Location

Airport or City:

Trip Planner

Search our weather history database for the weather conditions in past years. The results will help you decide how hot, cold, wet, or windy it might be!

Date:

Astronomy

Mar. 24, 2013 Rise Set
Actual Time 6:22 AM CET 6:34 PM CET
Civil Twilight 5:59 AM CET 6:57 PM CET
Nautical Twilight 5:32 AM CET 7:24 PM CET
Astronomical Twilight 5:06 AM CET 7:50 PM CET
Moon 4:00 PM CET (3/24) 4:05 AM CET (3/24)
Length of Visible Light 12h 58m
Length of Day
12h 12m
Waxing Gibbous, 90% of the Moon is Illuminated
Mar 24
Waxing Gibbous
Mar 27
Full
Apr 3
Last Quarter
Apr 10
New
Apr 18
First Quarter

Hourly Weather History & Observations

Time (CET) Temp. Dew Point Humidity Pressure Visibility Wind Dir Wind Speed Gust Speed Precip Events Conditions
12:00 AM 73.4 °F 33.8 °F 23% 29.92 in 2.5 mi East 18.4 mph - N/A   Haze
1:00 AM 72 °F 34 °F 15%  in 2 mi East 17.3 mph - -   Widespread Dust
1:00 AM 71.6 °F 33.8 °F 25% 29.92 in 2.5 mi East 17.3 mph - N/A   Haze
2:00 AM 69.8 °F 33.8 °F 27% 29.89 in 2.5 mi East 17.3 mph - N/A   Haze
3:00 AM 69.8 °F 33.8 °F 27% 29.89 in 2.5 mi ESE 18.4 mph - N/A   Haze
4:00 AM 69 °F 33 °F 15%  in 2 mi ESE 16.1 mph - -   Widespread Dust
4:00 AM 69.8 °F 32.0 °F 25% 29.86 in 2.5 mi ESE 16.1 mph - N/A   Haze
5:00 AM 68.0 °F 32.0 °F 26% 29.86 in 2.5 mi East 15.0 mph - N/A   Haze
6:00 AM 69.8 °F 33.8 °F 27% 29.89 in 2.5 mi ESE 16.1 mph - N/A   Haze
6:02 AM 69.8 °F 33.8 °F 27% 29.89 in 1.9 mi ESE 13.8 mph - N/A   Haze
7:00 AM 69 °F 32 °F 15%  in 2 mi ESE 9.2 mph - -   Widespread Dust
7:00 AM 68.0 °F 32.0 °F 26% 29.92 in 1.9 mi ESE 9.2 mph - N/A   Haze
8:00 AM 69.8 °F 32.0 °F 25% 29.92 in 1.9 mi SE 4.6 mph - N/A   Haze
9:00 AM 77.0 °F 30.2 °F 18% 29.95 in 1.2 mi SE 18.4 mph - N/A   Haze
10:00 AM 81 °F 29 °F 7%  in 1 mi SSE 20.7 mph - -  
10:00 AM 80.6 °F 28.4 °F 15% 29.95 in 1.2 mi SSE 20.7 mph - N/A   Haze
11:00 AM 80.6 °F 26.6 °F 14% 29.95 in 1.2 mi SSE 19.6 mph - N/A   Haze
12:00 PM - - N/A% 29.95 in 0.9 mi South 26.5 mph - N/A   Low Drifting Sand
1:00 PM 92 °F - %  in 1 mi South 23.0 mph - -   Blowing Sand
1:00 PM - - N/A% 29.89 in 0.9 mi South 23.0 mph - N/A   Low Drifting Sand
2:00 PM - - N/A% 29.83 in 0.6 mi South 27.6 mph - N/A   Blowing Sand
2:37 PM - - N/A% 29.83 in 0.3 mi WNW 33.4 mph - N/A   Blowing Sand
3:00 PM - - N/A% 29.83 in 0.2 mi SSW 34.5 mph - N/A   Blowing Sand
4:00 PM 94 °F - %  in 0 mi SSW 31.1 mph - -   Blowing Sand
4:00 PM - - N/A% 29.80 in 0.3 mi SSW 31.1 mph - N/A   Blowing Sand
5:00 PM - - N/A% 29.80 in 1.2 mi SW 27.6 mph - N/A   Low Drifting Sand
6:00 PM - - N/A% 29.80 in 1.2 mi SW 27.6 mph - N/A   Blowing Sand
7:00 PM 87 °F 22 °F 4%  in 2 mi West 9.2 mph - -   Scattered Clouds
7:00 PM 87.8 °F 23.0 °F 9% 29.80 in 1.9 mi West 9.2 mph - N/A   Haze
8:00 PM 82.4 °F 24.8 °F 12% 29.83 in 2.5 mi West 6.9 mph - N/A   Haze
10:00 PM 72 °F 28 °F 10%  in 2 mi Calm Calm - -  
10:00 PM 73.4 °F 28.4 °F 19% 29.89 in 2.5 mi Calm Calm - N/A   Haze
11:00 PM 68.0 °F 23.0 °F 18% 29.92 in 3.1 mi Calm Calm - N/A   Unknown